Regional Weather Roundup
Issued by NWS

Home | Current Version | Previous Version | Text Only | Print | Product List | Glossary Off
Versions: 1 2 3 4 5 6 7 8 9 10 11 12 13 14 15 16 17 18 19 20 21 22 23 24 25 26 27

000
ASUS45 KSLC 191810
RWRUT

UTAH REGIONAL WEATHER ROUNDUP
NATIONAL WEATHER SERVICE SALT LAKE CITY UT
1200 PM MDT WED JUL 19 2017

UTZ001>011-023>025-191900-

NORTHERN UTAH

CITY           SKY/WX    TMP DP  RH WIND       PRES   REMARKS
BRIGHAM CITY   PTSUNNY   89  49  25 SW10      30.09R
DUGWAY         PTSUNNY   89  47  22 SW7G15    30.10R
HILL AFB       NOT AVBL
LOGAN          PTSUNNY   82  47  29 N5        30.11S
OGDEN          CLOUDY    89  55  31 S20       30.09S
SALT LAKE CITY CLOUDY    89  57  33 S21G28    30.08R
TOOELE VALLEY  CLOUDY    88  54  31 S17       30.09R
WENDOVER       SUNNY     92  27   9 E10       30.08F
HEBER CITY       N/A     81  52  36 SW15      30.21S
WEST JORDAN    CLOUDY    83  64  52 SE16G23   30.13S

$$

UTZ011>015-024>027-191900-

CENTRAL/NORTHEAST UTAH

CITY           SKY/WX    TMP DP  RH WIND       PRES   REMARKS
PROVO AIRPORT  CLOUDY    86  57  37 E7        30.15S
MOAB/CANYONLAN MOSUNNY   95  50  21 SE6       30.12F HX  92
DELTA          CLOUDY    88  50  27 SW13G20   30.16S
PRICE          PTSUNNY   85  51  31 SW6       30.25S
ROOSEVELT      SUNNY     88  46  23 S5        30.19F
VERNAL         SUNNY     89  50  26 VRB5      30.17F

$$

UTZ013>016-019>022-027-191900-

SOUTHERN UTAH

CITY           SKY/WX    TMP DP  RH WIND       PRES   REMARKS
BRYCE CANYON   PTSUNNY   71  56  58 SE10      30.42R
CEDAR CITY     CLOUDY    79  57  46 SW8       30.25S
MILFORD        CLOUDY    83  56  39 S18       30.19S
ST GEORGE      CLOUDY    87  60  40 W8        30.10S
HANKSVILLE     SUNNY     91  50  24 S12       30.15F
BLANDING       SUNNY     85  49  28 SE9G17    30.35F

$$

REGIONAL REPORTS     COLORADO/ARIZONA

CITY           SKY/WX    TMP DP  RH WIND       PRES   REMARKS
CRAIG, CO      CLOUDY    90  44  20 W13G18    30.26F
GRAND JUNCTION MOSUNNY   88  50  27 S6        30.16F
RIFLE, CO      SUNNY     87  48  25 NW7       30.22F
MONTROSE, CO   CLOUDY    86  50  28 CALM      30.26F
CORTEZ, CO     SUNNY     88  53  30 S9        30.28F
COLORADO CITY    N/A     81  63  54 SE3       30.26S
PAGE, AZ       SUNNY     86  59  39 NE8       30.17F
GRAND CANYON   SUNNY     77  55  46 CALM      30.35F
KINGMAN, AZ    CLOUDY    75  68  78 CALM      30.18S
FLAGSTAFF, AZ  MOSUNNY   72  56  57 SW8       30.40R

$$

REGIONAL REPORTS    NEVADA/IDAHO/WYOMING

CITY           SKY/WX    TMP DP  RH WIND       PRES   REMARKS
LAS VEGAS, NV  LGT RAIN  76  72  87 S5        30.08S
ELY, NY        SUNNY     86  48  26 SE17G26   30.24F
ELKO, NV       SUNNY     85  16   7 VRB3      30.16F
POCATELLO, ID  SUNNY     84  38  19 W12       30.13S
BURLEY, ID     SUNNY     81  42  25 W8        30.10
FORT BRIDGER,  MOCLDY    81  47  30 W7        30.33S
EVANSTON, WY   CLOUDY    73  54  51 SW8       30.32R
ROCK SPRINGS,  CLOUDY    84  41  21 SE6       30.28F
KEMMERER, WY     N/A     79  45  29 S6        30.33S

$$




USA.gov is the U.S. government's official web portal to all federal, state and local government web resources and services.